Retour au catalogue

SL-16 DEB

ActifLEO
NORAD 22410·DEBRIS·🇷🇺 Russia

Lancé Dec 25, 1992 depuis Baikonur Cosmodrome

Loading…

Prochains Passages (prochaines 24 heures)

TLE

FraisSource: Space-Track

Époque: Sep 14, 2026, 04:16 UTC

1 22410U 92093DB  26257.17819360  .00000118  00000-0  11065-3 0  9995
2 22410  71.0856 168.0046 0108889 224.5429 286.7050 13.97392969714250

Suivez SL-16 DEB en temps réel avec AllMySat

Download on the App Store